Weather in Nekhaevskaya

Russia / Volgograd Oblast     50°24′31″N   41°45′08″E
temp.,
°C
wind,
m/s
gust,
m/s
humid.,
%
clouds,
%
prec.,
mm/h
press.,
hPa
HPBL,
m
31 july, sat
sat3100:00+20wsw4989100 1.4 1008175
03:00+20w379085 2.4 1008167
06:00+20wsw258996 2.4 1009163
09:00+24wnw2372100 2.4 1009446
12:00+30wsw35459 0.0 10091929
15:00+29wsw2447100 0.1 1009160
18:00+26nw225730 0.1 1010173
21:00+23n226523 0.1 101112
1 august, sun
sun100:00+22sse11680 0.0 101111
03:00+21wnw01774 0.0 101311
06:00+23nne11710 0.0 101320
09:00+28ene225191 0.0 1013623
12:00+32ese33398 0.0 10131816
15:00+32se223498 0.1 10112060
18:00+26n465957 0.5 1012117
21:00+24ene12584 0.7 101212
2 august, mon
mon200:00+22nne22687 0.0 101217
03:00+21e33705 0.0 101235
06:00+22ese22589 0.0 101226
09:00+28sse123437 0.0 1012227
12:00+35s45198 0.0 10111664
15:00+36s441610 0.0 10093658
18:00+34w34220 0.0 1009311
21:00+25e36465 0.0 100984
3 august, tue
tue300:00+27s35338 0.0 100896
03:00+24sw364119 0.0 100996
06:00+22nw4105975 0.0 1010240
09:00+29ne014174 0.0 1009364
12:00+33sw242887 0.0 10092093
15:00+33w133175 0.0 10071433
18:00+23n8117795 0.3 1009467
21:00+19nnw359162 2.0 1010127
4 august, wed
wed400:00+18w119296 0.1 101211
03:00+18nw3590100 0.1 101294
06:00+18nnw2690100 0.0 1013210
09:00+23n44610 0.0 1014774
12:00+28nnw45380 0.0 10142041
15:00+29nnw543254 0.0 10142831
18:00+27n653520 0.0 10141453
21:00+20nne225552 0.0 101620